Location: Unspecified
(0.0000°N, 0.0000°E)
Time: 12:05:15
(UTC+00:00)

STARLINK 1040 - Pass Details

Date: 12 December 2019
Orbit: 350 x 353 km, 53.0° (Epoch: 11 December)

Event Time Altitude Azimuth Distance (km) Brightness Sun altitude
Rises 18:39:13 0° 182° (S) 2,115 7.0 -10.5°
Reaches altitude 10° 18:42:20 10° 144° (SE) 1,282 5.4 -11.2°
Maximum altitude 18:43:15 11° 124° (SE) 1,219 5.1 -11.4°
Enters shadow 18:43:46 11° 114° (ESE) 1,239 5.0 -11.5°
